This is the latest recevied weather packets stored in our database for station/object W8RSN-13. If no packets are shown the sender has not sent any weather packets the latest 10 day(s).
| Time | Temp. | Humidity | Pressure | Rain* | Wind** | Luminosity | Snow |
|---|---|---|---|---|---|---|---|
| 1788587368 | 20° C | 57% | 1015.4 hPa | - | - | - | - |
| 1788587067 | 20.56° C | 57% | 1015.5 hPa | - | - | - | - |
| 1788586766 | 20° C | 55% | 1015.7 hPa | - | - | - | - |
| 1788586465 | 20° C | 56% | 1015.4 hPa | - | - | - | - |
| 1788586164 | 20° C | 58% | 1015.6 hPa | - | - | - | - |
| 1788585863 | 20° C | 60% | 1015.7 hPa | - | - | - | - |
| 1788585580 | 19.44° C | 61% | 1015.5 hPa | - | - | - | - |
| 1788585262 | 20° C | 60% | 1015.5 hPa | - | - | - | - |
| 1788584960 | 20° C | 61% | 1015.6 hPa | - | - | - | - |
| 1788584660 | 20° C | 57% | 1015.4 hPa | - | - | - | - |
| 1788584359 | 20° C | 61% | 1015.6 hPa | - | - | - | - |
| 1788584058 | 20° C | 62% | 1015.4 hPa | - | - | - | - |
| 1788583757 | 20.56° C | 61% | 1015.4 hPa | - | - | - | - |
| 1788583456 | 20.56° C | 62% | 1015.3 hPa | - | - | - | - |
| 1788583175 | 20.56° C | 62% | 1015.2 hPa | - | - | - | - |
| 1788582874 | 20.56° C | 61% | 1015.3 hPa | - | - | - | - |
| 1788582573 | 20.56° C | 62% | 1015.3 hPa | - | - | - | - |
| 1788582272 | 21.11° C | 62% | 1015.2 hPa | - | - | - | - |
| 1788581972 | 21.11° C | 61% | 1015.3 hPa | - | - | - | - |
| 1788581671 | 21.11° C | 61% | 1015.2 hPa | - | - | - | - |
| 1788581370 | 21.11° C | 61% | 1015.3 hPa | - | - | - | - |
| 1788581069 | 21.11° C | 60% | 1015.2 hPa | - | - | - | - |
| 1788580768 | 21.67° C | 59% | 1015 hPa | - | - | - | - |
| 1788580467 | 21.67° C | 59% | 1015 hPa | - | - | - | - |
| 1788580166 | 21.67° C | 59% | 1014.9 hPa | - | - | - | - |
* Rain since midnight (hover to see other rain measurements)
** Current wind speed in m/s (hover to see current wind gust speed)